DLH1PM EDDF-EDDS

Flight info

Callsign DLH1PM
Flight time 0h 22m
Altitude 19000
Route ANEKI2L/18 ANEKI Y163 NEKLO Y171 INKAM N850 KRH T128 BADSO BADSO2A
Aircraft A319/M-SDE2E3FGILORWXYZ/HB1

Departure

Time 2026-05-07 11:13
Airport Frankfurt Main Airport (EDDF)

Arrival

Time 2026-05-07 11:35
Airport Stuttgart Airport (EDDS)
Time Latitude Longitude Altitude Speed Heading
2026-05-07 10:28 50.04801 8.58422 366 ft 0 kts 160°
2026-05-07 11:02 50.04805 8.58420 366 ft 3 kts 160°
2026-05-07 11:02 50.04830 8.58405 362 ft 4 kts 160°
2026-05-07 11:03 50.04851 8.58393 363 ft 4 kts 167°
2026-05-07 11:03 50.04875 8.58394 360 ft 4 kts 212°
2026-05-07 11:03 50.04891 8.58422 362 ft 3 kts 250°
2026-05-07 11:03 50.04893 8.58432 361 ft 0 kts 250°
2026-05-07 11:05 50.04891 8.58422 362 ft 3 kts 250°
2026-05-07 11:05 50.04875 8.58354 359 ft 9 kts 250°
2026-05-07 11:06 50.04848 8.58241 359 ft 13 kts 250°
2026-05-07 11:06 50.04813 8.58093 361 ft 16 kts 250°
2026-05-07 11:06 50.04753 8.57950 358 ft 16 kts 221°
2026-05-07 11:06 50.04687 8.57812 358 ft 17 kts 249°
2026-05-07 11:07 50.04645 8.57637 358 ft 18 kts 250°
2026-05-07 11:07 50.04601 8.57452 358 ft 19 kts 250°
2026-05-07 11:07 50.04555 8.57256 363 ft 20 kts 249°
2026-05-07 11:07 50.04506 8.57053 359 ft 20 kts 249°
2026-05-07 11:08 50.04457 8.56848 362 ft 20 kts 250°
2026-05-07 11:08 50.04407 8.56636 360 ft 22 kts 249°
2026-05-07 11:08 50.04352 8.56408 362 ft 23 kts 250°
2026-05-07 11:08 50.04294 8.56169 360 ft 24 kts 249°
2026-05-07 11:09 50.04235 8.55921 355 ft 25 kts 250°
2026-05-07 11:09 50.04174 8.55664 355 ft 25 kts 250°
2026-05-07 11:09 50.04113 8.55405 353 ft 25 kts 250°
2026-05-07 11:09 50.04052 8.55154 360 ft 25 kts 249°
2026-05-07 11:10 50.03992 8.54902 355 ft 25 kts 250°
2026-05-07 11:10 50.03929 8.54642 353 ft 26 kts 249°
2026-05-07 11:10 50.03874 8.54412 351 ft 18 kts 248°
2026-05-07 11:10 50.03805 8.54240 347 ft 19 kts 244°
2026-05-07 11:11 50.03756 8.54037 347 ft 21 kts 249°
2026-05-07 11:11 50.03704 8.53820 346 ft 22 kts 249°
2026-05-07 11:11 50.03647 8.53590 345 ft 23 kts 248°
2026-05-07 11:11 50.03590 8.53357 337 ft 21 kts 250°
2026-05-07 11:12 50.03538 8.53142 338 ft 19 kts 249°
2026-05-07 11:12 50.03489 8.52940 334 ft 20 kts 249°
2026-05-07 11:12 50.03434 8.52730 336 ft 22 kts 249°
2026-05-07 11:12 50.03380 8.52597 334 ft 11 kts 199°
2026-05-07 11:13 50.03258 8.52593 333 ft 38 kts 179°
2026-05-07 11:13 50.02721 8.52598 335 ft 113 kts 179°
2026-05-07 11:13 50.01737 8.52616 450 ft 158 kts 180°
2026-05-07 11:13 50.00655 8.52624 1185 ft 155 kts 184°
2026-05-07 11:14 49.99554 8.52614 1892 ft 166 kts 180°
2026-05-07 11:14 49.98319 8.52717 2436 ft 189 kts 179°
2026-05-07 11:14 49.96928 8.52836 2951 ft 212 kts 178°
2026-05-07 11:14 49.95364 8.52958 3528 ft 235 kts 178°
2026-05-07 11:15 49.93690 8.53087 4295 ft 246 kts 178°
2026-05-07 11:15 49.91996 8.53207 5557 ft 243 kts 179°
2026-05-07 11:15 49.90293 8.53334 6619 ft 250 kts 176°
2026-05-07 11:15 49.88571 8.54139 7229 ft 277 kts 153°
2026-05-07 11:16 49.86844 8.55615 8159 ft 288 kts 152°
2026-05-07 11:16 49.85083 8.57139 9295 ft 293 kts 152°
2026-05-07 11:16 49.83282 8.58672 10350 ft 299 kts 153°
2026-05-07 11:16 49.81374 8.60277 10886 ft 323 kts 153°
2026-05-07 11:17 49.79363 8.61961 11741 ft 333 kts 153°
2026-05-07 11:17 49.77303 8.63682 12726 ft 339 kts 153°
2026-05-07 11:17 49.75213 8.65422 13725 ft 344 kts 152°
2026-05-07 11:17 49.73063 8.67213 14630 ft 348 kts 152°
2026-05-07 11:18 49.70919 8.68995 15507 ft 352 kts 152°
2026-05-07 11:18 49.68777 8.70779 16375 ft 357 kts 152°
2026-05-07 11:18 49.66577 8.72603 17250 ft 361 kts 152°
2026-05-07 11:18 49.64352 8.74457 18109 ft 365 kts 152°
2026-05-07 11:19 49.62131 8.76298 18776 ft 354 kts 153°
2026-05-07 11:19 49.59998 8.78055 18988 ft 344 kts 153°
2026-05-07 11:19 49.57899 8.79790 19033 ft 341 kts 153°
2026-05-07 11:19 49.55813 8.81518 19044 ft 340 kts 153°
2026-05-07 11:20 49.53730 8.83240 19044 ft 340 kts 153°
2026-05-07 11:20 49.51647 8.84966 19043 ft 340 kts 153°
2026-05-07 11:20 49.49567 8.86681 19043 ft 340 kts 153°
2026-05-07 11:20 49.47440 8.88429 19050 ft 358 kts 153°
2026-05-07 11:21 49.45207 8.90260 19041 ft 368 kts 153°
2026-05-07 11:21 49.42939 8.92121 19039 ft 370 kts 153°
2026-05-07 11:21 49.40702 8.93959 18681 ft 360 kts 153°
2026-05-07 11:21 49.38519 8.95757 17991 ft 353 kts 154°
2026-05-07 11:22 49.36366 8.97517 17287 ft 347 kts 154°
2026-05-07 11:22 49.34251 8.99247 16616 ft 342 kts 153°
2026-05-07 11:22 49.32167 9.00948 15972 ft 337 kts 153°
2026-05-07 11:22 49.30110 9.02623 15258 ft 334 kts 153°
2026-05-07 11:23 49.28077 9.04281 14813 ft 325 kts 154°
2026-05-07 11:23 49.26119 9.05865 14465 ft 313 kts 154°
2026-05-07 11:23 49.24222 9.07408 14100 ft 304 kts 154°
2026-05-07 11:23 49.22383 9.08911 13726 ft 296 kts 153°
2026-05-07 11:24 49.20582 9.10375 13356 ft 292 kts 154°
2026-05-07 11:24 49.18788 9.11836 12996 ft 293 kts 154°
2026-05-07 11:24 49.16989 9.13296 12624 ft 293 kts 153°
2026-05-07 11:24 49.15183 9.14764 12254 ft 294 kts 154°
2026-05-07 11:25 49.13381 9.16222 11893 ft 293 kts 154°
2026-05-07 11:25 49.11579 9.17682 11519 ft 293 kts 154°
2026-05-07 11:25 49.09775 9.19140 11142 ft 294 kts 154°
2026-05-07 11:25 49.07963 9.20603 10761 ft 295 kts 154°
2026-05-07 11:26 49.06176 9.22047 10381 ft 295 kts 154°
2026-05-07 11:26 49.04368 9.23507 10004 ft 294 kts 154°
2026-05-07 11:26 49.02571 9.24959 9625 ft 291 kts 155°
2026-05-07 11:26 49.00788 9.26400 9229 ft 289 kts 154°
2026-05-07 11:27 48.99023 9.27826 8841 ft 286 kts 155°
2026-05-07 11:27 48.97267 9.29227 8437 ft 284 kts 155°
2026-05-07 11:27 48.95524 9.30621 8042 ft 282 kts 155°
2026-05-07 11:27 48.93796 9.32008 7621 ft 280 kts 155°
2026-05-07 11:28 48.92077 9.33389 7192 ft 279 kts 154°
2026-05-07 11:28 48.90462 9.35005 6783 ft 278 kts 144°
2026-05-07 11:28 48.88957 9.36853 6337 ft 278 kts 143°
2026-05-07 11:28 48.87457 9.38697 5876 ft 277 kts 143°
2026-05-07 11:29 48.85959 9.40532 5427 ft 277 kts 143°
2026-05-07 11:29 48.84461 9.42370 5079 ft 275 kts 143°
2026-05-07 11:29 48.82971 9.44187 5004 ft 274 kts 143°
2026-05-07 11:29 48.81478 9.45999 4460 ft 277 kts 143°
2026-05-07 11:30 48.79922 9.47689 4059 ft 270 kts 154°
2026-05-07 11:30 48.78218 9.48497 3998 ft 246 kts 181°
2026-05-07 11:30 48.76589 9.48311 3997 ft 226 kts 192°
2026-05-07 11:30 48.75099 9.47876 3997 ft 210 kts 198°
2026-05-07 11:31 48.73921 9.46840 4023 ft 187 kts 232°
2026-05-07 11:31 48.73326 9.45201 3955 ft 173 kts 254°
2026-05-07 11:31 48.72994 9.43469 3777 ft 170 kts 255°
2026-05-07 11:31 48.72671 9.41760 3568 ft 168 kts 256°
2026-05-07 11:32 48.72031 9.38354 3119 ft 166 kts 256°
2026-05-07 11:32 48.71714 9.36664 2895 ft 166 kts 256°
2026-05-07 11:32 48.71402 9.35007 2679 ft 160 kts 256°
2026-05-07 11:33 48.71105 9.33429 2470 ft 150 kts 256°
2026-05-07 11:33 48.70832 9.31984 2267 ft 136 kts 255°
2026-05-07 11:33 48.70583 9.30662 2077 ft 127 kts 256°
2026-05-07 11:33 48.70423 9.29812 1963 ft 126 kts 257°
2026-05-07 11:34 48.70185 9.28541 1792 ft 126 kts 257°
2026-05-07 11:34 48.69942 9.27253 1617 ft 126 kts 257°
2026-05-07 11:34 48.69700 9.25996 1456 ft 124 kts 258°
2026-05-07 11:34 48.69462 9.24725 1295 ft 126 kts 257°
2026-05-07 11:35 48.69230 9.23485 1210 ft 113 kts 256°
2026-05-07 11:35 48.69050 9.22529 1227 ft 77 kts 254°
2026-05-07 11:35 48.68925 9.21868 1249 ft 55 kts 253°
2026-05-07 11:35 48.68835 9.21389 1256 ft 42 kts 253°
2026-05-07 11:36 48.68762 9.21001 1263 ft 35 kts 254°
2026-05-07 11:36 48.68700 9.20672 1273 ft 30 kts 254°
2026-05-07 11:36 48.68677 9.20385 1276 ft 26 kts 275°
2026-05-07 11:36 48.68710 9.20146 1285 ft 20 kts 284°
2026-05-07 11:37 48.68769 9.19989 1293 ft 16 kts 313°
2026-05-07 11:37 48.68839 9.19899 1299 ft 11 kts 333°
2026-05-07 11:37 48.68891 9.19838 1304 ft 9 kts 282°
2026-05-07 11:37 48.68878 9.19757 1306 ft 8 kts 254°
2026-05-07 11:38 48.68862 9.19671 1308 ft 9 kts 254°
2026-05-07 11:38 48.68843 9.19569 1310 ft 10 kts 253°
2026-05-07 11:38 48.68835 9.19468 1312 ft 9 kts 296°
2026-05-07 11:38 48.68881 9.19435 1315 ft 6 kts 343°
2026-05-07 11:39 48.68898 9.19427 1315 ft 0 kts 343°